Home > Weather > Rostock > Past weeks

Flag for Germany Past Weather in Rostock, Mecklenburg-Western Pomerania, Germany — Yesterday and Last 2 Weeks

Now
68 °F

Scattered clouds.


Feels Like: 68 °F
Forecast: 60 / 77 °F
Wind: 12 mph from Northeast

Location: Laage

Current Time: May 29, 2016 at 11:46:06 AM

Latest Report: May 29, 2016 at 10:20 AM


Visibility: N/A

Pressure: 29.83 "Hg

Humidity: 78%

Dew Point: 61 °F

Location of RostockLocation

Past Weather in Rostock — Graph

°F

Rostock Temperature Yesterday

Maximum temperature yesterday: 70 °F (at 2:20 PM)
Minimum temperature yesterday: 52 °F (at 5:20 AM)
Average temperature yesterday: 61 °F

High & Low Weather Summary for the Past Weeks

 TemperatureHumidityPressure
High82 °F (May 22, 3:20 PM)100% (May 15, 5:20 AM)30.07 "Hg (May 15, 5:20 AM)
Low39 °F (May 18, 5:20 AM)33% (May 19, 5:20 PM)29.65 "Hg (May 14, 10:20 AM)
Average57 °F76%29.89 "Hg
* Reported May 14 10:20 AM — May 29 10:20 AM, Rostock, Weather by CustomWeather, © 2016

Note: Actual official high and low records may vary slightly from our data, if they occured in-between our weather recording intervals... More about our weather records

Advertising

Rostock Weather History for the Previous 24 Hours

Scroll right to see more
 ConditionsComfort  
Time TempWeatherWind HumidityBarometerVisibility
10:20 AM
Sun, May 29
68 °FScattered clouds.12 mph78%29.83 "HgN/A
9:45 AM64 °FScattered clouds.9 mph83%29.86 "Hg4 mi
9:20 AM63 °FFog.10 mph88%29.86 "Hg3 mi
8:20 AM59 °FFog.9 mph94%29.86 "Hg1 mi
7:20 AM57 °FFog.9 mph94%29.89 "Hg1 mi
6:20 AM55 °FFog.8 mph100%29.89 "Hg1 mi
5:20 AM55 °FFog.7 mph100%29.89 "Hg1 mi
4:20 AM57 °FFog.7 mph94%29.92 "Hg1 mi
3:20 AM57 °FFog.7 mph94%29.92 "Hg1 mi
3:01 AM57 °FFog.7 mph94%29.92 "Hg2 mi
2:20 AM57 °FLow clouds.7 mph94%29.92 "Hg4 mi
1:20 AM57 °FLow clouds.8 mph88%29.95 "Hg4 mi
12:20 AM57 °FLow clouds.8 mph88%29.95 "Hg4 mi
11:20 PM
Sat, May 28
57 °FLow clouds.9 mph88%29.98 "Hg5 mi
10:20 PM59 °FPartly sunny.12 mph88%29.98 "Hg6 mi
9:20 PM59 °FPartly sunny.8 mph88%29.98 "HgN/A
8:20 PM63 °FPartly sunny.12 mph77%29.98 "HgN/A
7:20 PM64 °FPassing clouds.12 mph73%29.98 "HgN/A
6:20 PM66 °FPassing clouds.10 mph68%29.98 "HgN/A
5:20 PM68 °FPassing clouds.13 mph64%29.98 "HgN/A
4:20 PM68 °FPassing clouds.12 mph56%29.98 "HgN/A
3:20 PM70 °FScattered clouds.10 mph57%29.98 "HgN/A
2:20 PM70 °FScattered clouds.12 mph60%30.01 "HgN/A
1:20 PM68 °FBroken clouds.12 mph60%30.01 "HgN/A
12:20 PM68 °FScattered clouds.10 mph53%30.01 "HgN/A
11:20 AM66 °FScattered clouds.9 mph56%30.01 "HgN/A
Weather by CustomWeather, © 2016

See weather overviewHow to use our weather pages